Regional Weather Roundup
Issued by NWS

Home | Current Version | Previous Version | Graphics & Text | Print | Product List | Glossary On
Versions: 1 2 3 4 5 6 7 8 9 10 11 12 13 14 15 16 17 18 19 20 21 22 23 24 25 26 27 28 29 30 31 32 33 34 35 36 37 38 39 40 41 42 43 44 45 46 47 48 49 50
000
ASUS43 KBIS 181002
RWRND

NORTH DAKOTA REGIONAL WEATHER ROUNDUP
NATIONAL WEATHER SERVICE BISMARCK ND
400 AM CST SAT NOV 18 2017

NOTE: "FAIR" INDICATES FEW OR NO CLOUDS BELOW 12,000 FEET WITH NO
SIGNIFICANT WEATHER AND/OR OBSTRUCTIONS TO VISIBILITY.


NDZ001>003-009>011-017-181100-
NORTHWEST NORTH DAKOTA

CITY           SKY/WX    TMP DP  RH WIND       PRES   REMARKS
WILLISTON      CLEAR     11   6  81 W10       30.05R WCI  -3
MINOT          PTCLDY    15   8  73 W16       29.95R WCI  -1
$$

NDZ018>021-031>035-040>046-181100-
SOUTHWEST NORTH DAKOTA

CITY           SKY/WX    TMP DP  RH WIND       PRES   REMARKS
BISMARCK       PTCLDY    24  18  77 NW7       29.96R WCI  16
DICKINSON      MOCLDY    16  11  80 NW13      29.95R WCI   2
GARRISON         N/A     15  10  80 NW13      29.96R WCI   1
HETTINGER ARPT CLEAR     26  21  81 NW14      29.94R WCI  14
$$

NDZ004>008-012>016-024-026-027-054-181100-
NORTHEAST NORTH DAKOTA

CITY           SKY/WX    TMP DP  RH WIND       PRES   REMARKS
GRAND FORKS    CLOUDY    17  12  80 NW12      29.88R WCI   4
GRND FRKS AFB  MOCLDY    17  11  74 NW12      29.88R WCI   5
DEVILS LAKE    CLOUDY    13  10  88 NW13      29.89R WCI  -2
$$

NDZ022-023-025-028>030-036>039-047>053-181100-
SOUTHEAST NORTH DAKOTA

CITY           SKY/WX    TMP DP  RH WIND       PRES   REMARKS
FARGO          PTCLDY    17  14  88 NW5       29.87R WCI  10
JAMESTOWN      MOCLDY    18  14  84 NW9       29.87R WCI   7
$$




USA.gov is the U.S. government's official web portal to all federal, state and local government web resources and services.